Location: Asheville, NC
(35.6000°N, 82.5500°W)
Time: 20:22:55
(UTC-04:00)

DOVE 4 - Pass Details

Date: 15 March 2018
Orbit: 589 x 802 km, 97.7° (Epoch: 20 June)

Event Time Altitude Azimuth Distance (km) Brightness Sun altitude
Rises 04:59:46 0° 30° (NNE) 3,273 ? -32.8°
Reaches altitude 10° 05:02:51 10° 48° (NE) 2,311 ? -32.2°
Maximum altitude 05:06:21 19° 92° (E) 1,751 ? -31.6°
Drops below altitude 10° 05:09:44 10° 136° (SE) 2,217 ? -31.0°
Sets 05:12:35 0° 154° (SSE) 3,091 ? -30.4°
